Temperature
8 8 8 8 9 10 10 10 11 12 13 13 12 12 13 15 15 15 16 17 17 17 17 17 17 18 18 17 17 17 17 16 16 16 15 15 15 16 15 15 15 15 15 15
7 7 9 9 10 11 11 10 11 12 13 13 12 12 13 13 14 15 16 17 17 17 16 16 17 17 17 17 17 17 16 16 16 16 15 15 15 15 15 15 15 15 14 14
7 8 10 10 10 10 10 10 10 11 12 12 12 12 12 12 14 15 16 16 16 16 16 16 16 16 16 16 16 16 16 16 16 15 15 15 15 15 15 15 15 15 14 14
8 9 10 10 10 10 10 11 11 11 10 10 11 9 10 11 11 12 14 15 15 15 15 15 15 15 15 15 15 15 15 15 15 15 15 14 14 14 14 14 14 14 14 14
7 8 9 9 10 10 10 11 10 10 10 9 10 9 9 10 10 11 11 13 14 14 14 13 13 13 13 13 13 13 13 13 14 14 14 14 14 14 14 14 14 14 14 13
7 7 8 9 10 11 11 10 9 8 9 9 9 8 9 9 10 10 10 12 13 12 12 12 12 12 12 12 12 12 12 12 12 12 13 13 13 13 13 13 13 13 13 13
7 7 7 9 9 10 10 9 8 8 8 7 8 9 9 10 10 10 10 11 12 12 12 11 11 11 11 11 11 11 11 11 11 11 11 11 12 12 12 12 12 12 12 12
7 7 7 7 9 9 9 8 7 8 7 7 8 8 9 9 10 11 12 12 12 12 11 11 11 11 11 11 10 10 10 10 10 10 10 10 10 10 10 10 10 11 11 11
7 7 7 7 8 9 8 8 8 7 7 7 7 8 9 10 9 9 10 11 11 11 11 11 11 10 10 10 10 9 9 9 9 9 9 9 9 9 9 9 9 9 9 9
7 7 7 7 8 8 8 8 7 6 7 7 8 8 8 9 8 9 9 10 11 11 11 10 10 10 9 9 9 8 8 8 8 8 8 8 8 8 8 8 8 8 8 8
7 7 7 7 7 8 8 8 7 6 6 7 7 8 9 8 9 9 9 10 11 11 10 10 10 9 9 8 8 7 7 7 7 7 7 7 7 7 7 7 7 7 7 7
7 6 6 6 7 8 8 8 7 7 6 6 6 7 9 8 9 9 10 11 11 11 10 10 9 9 8 7 7 6 6 6 6 6 6 6 6 6 6 6 6 6 7 7
7 6 6 6 6 6 7 7 8 7 6 5 5 8 9 8 8 10 10 11 11 10 10 9 9 8 7 7 6 6 5 5 5 5 5 5 6 6 5 5 5 6 6 6
7 6 6 7 7 6 6 7 7 7 6 5 6 8 9 8 8 9 10 11 10 10 9 9 8 7 7 6 5 4 4 4 4 4 4 4 5 5 5 5 5 5 5 5
7 6 6 7 7 6 6 7 7 6 6 6 7 8 9 9 9 9 10 10 10 9 9 8 8 7 6 5 4 3 3 3 3 3 3 4 4 4 4 4 4 4 4 5
6 5 5 6 7 7 7 7 7 7 7 7 7 8 9 10 10 10 10 10 9 9 9 8 7 6 5 4 3 3 2 2 2 2 3 3 3 3 3 3 3 4 4 4
5 5 5 5 6 6 5 6 7 6 7 7 8 8 9 8 8 9 10 10 10 10 9 8 7 6 5 4 3 2 2 2 2 2 2 2 2 2 2 2 3 3 3 3
5 4 3 4 5 5 7 7 7 7 7 7 7 8 9 9 10 11 11 11 10 10 9 8 7 6 5 4 3 2 2 2 2 1 2 2 2 2 2 2 2 2 1 2
6 5 4 4 5 5 7 8 7 6 6 7 7 8 9 10 9 9 10 10 10 10 9 8 7 6 5 4 3 2 2 2 2 1 1 2 1 1 1 1 1 1 1 1
7 6 5 5 5 6 8 9 9 8 7 8 8 7 8 8 7 8 10 10 9 9 8 7 6 6 5 4 3 3 2 2 2 2 2 2 1 1 1 1 1 1 1 1
6 6 5 5 5 6 7 8 8 7 7 8 9 8 8 8 9 10 10 9 9 8 8 7 6 6 5 4 4 3 3 2 2 2 2 2 1 1 1 1 1 1 1 1
5 5 5 5 5 6 8 8 7 7 8 9 9 9 9 10 10 10 9 9 8 8 7 7 6 6 5 5 4 4 3 3 2 2 2 2 1 1 1 1 1 1 1 0
5 5 5 5 6 7 8 8 9 9 9 9 9 9 9 10 9 9 9 8 8 7 7 7 6 6 5 5 4 4 3 3 2 2 2 2 1 1 1 1 1 1 0 -0
5 5 5 5 6 7 8 9 9 9 9 9 9 9 9 9 9 9 8 8 7 7 7 6 6 5 5 5 4 4 3 3 2 2 2 2 1 1 1 1 0 0 -0 -0
5 5 5 5 6 7 8 9 9 9 9 9 9 9 9 9 8 8 8 8 7 7 6 6 6 6 5 5 5 4 3 3 3 2 2 2 1 1 1 1 0 -0 -0 -1
4 5 5 5 6 5 7 8 8 8 8 8 8 8 8 8 8 8 8 7 7 7 6 6 6 6 5 5 5 4 4 3 3 2 2 2 1 1 1 0 0 -0 -1 -1
Wind_Speed
7 7 12 13 8 5 8 8 8 6 6 8 9 8 8 7 4 7 7 6 5 3 2 4 6 6 7 7 7 5 3 1 1 2 2 3 5 5 5 7 12 13 13 13
6 9 8 9 6 6 9 9 8 5 4 8 8 10 9 8 6 8 8 8 7 5 5 6 7 7 8 7 7 6 5 3 2 1 2 2 3 4 5 4 8 12 12 13
6 5 9 9 8 7 6 9 9 6 2 2 4 6 10 9 6 6 7 7 7 9 9 7 6 7 7 7 6 5 5 4 3 2 1 1 1 1 2 3 4 6 10 12
2 4 10 10 10 8 5 6 9 8 7 4 7 5 8 9 10 10 9 7 8 8 8 8 7 7 6 5 5 6 6 6 5 4 2 2 1 2 2 3 3 5 7 8
3 5 12 12 10 8 5 3 6 8 7 3 3 4 8 5 11 13 11 9 9 9 10 9 8 7 6 5 6 6 7 8 7 6 5 3 2 1 3 3 4 5 4 6
2 1 3 5 4 7 6 8 8 6 4 4 7 6 8 7 10 9 9 9 10 10 9 8 7 7 6 6 7 7 8 8 8 8 7 6 5 4 4 4 4 4 4 4
3 2 2 1 6 4 6 8 4 2 2 6 5 6 10 8 9 11 12 11 10 10 9 9 8 7 6 6 6 7 8 7 8 8 8 7 6 5 4 4 4 4 4 4
6 5 0 2 4 7 7 9 8 7 7 4 3 8 8 7 7 8 12 12 10 9 8 8 8 7 6 6 6 6 7 6 7 7 7 6 6 4 3 4 3 4 3 4
6 5 2 2 2 5 6 4 6 6 4 2 6 7 7 2 3 9 11 11 10 9 9 8 7 7 6 6 6 6 6 6 6 6 6 6 7 6 5 5 4 4 4 4
5 6 3 1 2 3 3 7 6 6 6 5 6 6 6 7 8 10 12 11 10 9 8 8 7 6 6 6 5 5 6 5 5 6 5 5 6 6 6 5 6 6 6 5
3 6 5 3 6 7 4 4 5 5 5 5 5 7 6 12 14 14 12 10 10 10 9 8 7 6 6 5 5 5 5 5 5 5 5 5 6 6 6 6 6 6 6 6
4 4 4 2 1 1 3 5 7 6 5 5 4 7 6 8 11 11 10 9 9 9 8 8 8 7 6 5 4 4 4 4 4 4 5 5 6 6 7 7 7 7 7 7
6 6 6 2 2 3 4 5 5 4 4 5 5 7 6 2 8 9 10 9 9 9 8 7 7 6 5 5 4 3 3 4 4 4 5 6 6 6 7 7 7 7 8 8
5 4 6 9 6 7 6 8 8 7 6 6 7 7 4 4 8 9 10 10 9 9 9 8 7 6 5 4 4 3 3 3 3 4 5 5 6 6 6 6 7 7 8 8
5 4 3 2 2 6 6 9 12 12 10 9 8 8 9 10 11 11 10 9 9 9 8 8 8 6 5 4 3 3 2 3 3 4 5 5 5 5 6 7 7 7 8 9
4 4 2 1 1 3 4 9 13 14 12 10 7 8 7 7 7 8 9 11 10 10 9 9 8 8 6 5 4 3 3 3 3 4 4 4 5 6 6 6 7 8 8 8
3 5 3 2 0 2 7 12 15 10 9 11 14 11 4 6 10 12 11 11 11 10 10 10 9 8 7 6 5 4 4 4 4 4 4 4 5 6 6 6 7 7 7 8
6 5 4 2 1 7 8 5 9 12 11 11 9 8 9 9 8 8 9 11 10 10 10 10 9 8 7 5 5 5 5 4 4 4 4 4 5 5 6 6 7 6 6 7
6 6 4 3 4 8 8 4 6 8 8 12 13 9 8 6 4 2 5 8 9 10 8 9 9 8 7 7 6 6 5 5 4 4 4 4 4 5 5 5 5 5 5 6
4 4 4 3 3 6 5 3 3 4 6 7 12 12 9 10 7 6 6 6 7 8 9 9 9 7 8 7 7 7 6 5 5 4 4 4 4 5 4 5 4 4 4 4
4 3 4 4 4 7 7 2 5 3 6 5 6 10 11 10 7 5 8 7 7 8 9 10 10 8 8 8 8 8 7 6 5 5 5 4 4 4 4 4 3 3 4 4
7 6 6 5 6 8 4 5 6 6 3 2 2 6 8 6 6 7 8 8 10 9 9 10 10 8 8 9 9 8 7 6 6 5 5 5 4 4 4 4 3 3 3 3
7 8 6 8 9 6 5 7 5 4 2 0 2 4 7 6 5 6 6 8 9 10 10 9 9 9 8 9 9 10 8 7 7 6 6 5 5 4 4 5 4 3 3 2
4 3 3 5 7 7 6 5 3 3 3 2 3 4 5 5 6 6 6 8 9 9 10 10 10 10 10 10 9 8 8 9 8 7 7 6 5 5 4 3 4 4 4 3
5 2 3 5 6 4 4 4 4 3 3 3 3 3 4 5 5 6 6 8 9 10 10 10 12 12 12 10 10 9 9 10 9 8 7 6 6 6 5 3 3 4 4 5
4 5 5 6 5 4 6 6 4 4 5 5 5 3 2 3 4 4 6 7 8 9 10 10 12 12 11 11 11 10 11 11 10 8 7 6 5 5 5 4 2 4 4 4
Wind_Direction
165 167 191 191 176 135 134 140 167 187 182 174 204 220 238 257 250 225 214 207 205 193 81 68 72 81 86 74 78 75 82 64 125 162 195 217 232 236 236 234 234 231 228 223
151 196 183 147 160 134 144 148 172 208 212 186 212 232 241 246 233 221 211 205 188 152 114 81 71 65 69 70 66 65 58 49 57 155 193 205 223 239 242 247 243 240 236 231
162 173 160 158 176 166 170 173 176 174 143 147 160 254 246 251 238 232 217 199 179 164 146 125 99 85 76 64 54 50 40 41 37 30 88 53 35 330 299 265 261 256 248 241
137 160 164 172 187 166 196 207 183 160 144 197 175 232 259 231 236 227 213 188 171 156 144 138 125 106 89 71 53 43 33 33 27 33 56 82 156 251 265 276 277 286 275 263
165 169 170 182 190 162 190 173 157 158 145 141 171 197 274 237 229 225 209 192 174 160 151 146 138 122 97 72 56 42 39 35 26 32 39 47 24 288 295 307 309 306 300 286
92 55 146 173 173 165 139 89 70 67 96 204 204 189 266 230 219 210 193 181 170 163 150 137 129 115 90 64 52 43 44 35 24 26 28 30 14 350 343 336 330 320 313 310
84 47 23 115 134 145 139 120 103 116 203 238 203 202 247 247 229 196 180 174 171 161 148 141 135 121 101 77 58 50 49 35 22 22 20 15 10 5 354 332 324 326 327 322
149 163 77 36 149 166 173 145 157 174 199 252 213 227 251 277 253 180 159 160 160 158 155 151 144 132 115 94 73 61 54 38 22 16 7 6 4 358 344 336 329 326 314 305
154 152 92 48 54 133 142 152 154 134 152 198 245 266 299 344 121 144 150 155 162 164 161 152 142 131 119 100 83 73 64 44 22 9 4 10 5 3 356 351 352 342 336 333
132 133 143 94 85 26 143 143 117 130 161 222 257 245 235 211 190 173 168 168 168 163 156 148 138 128 115 105 92 74 66 49 19 10 10 17 5 5 3 9 7 2 357 359
119 129 141 149 188 180 153 153 150 151 178 187 236 258 223 205 192 182 178 173 168 166 161 152 139 128 117 103 88 74 57 38 18 13 19 22 14 9 11 17 12 10 13 17
143 120 137 150 357 249 201 185 160 168 212 198 212 267 290 225 188 172 171 172 169 163 156 149 142 133 122 108 91 73 52 32 15 25 38 31 22 20 24 22 20 26 32 31
141 126 130 142 266 224 220 213 190 155 150 179 191 265 329 114 152 163 166 167 163 155 150 146 145 142 135 122 103 79 53 30 28 44 46 39 31 29 30 29 30 36 42 42
125 135 175 189 201 177 194 204 189 164 192 211 218 251 280 178 167 172 173 171 166 164 161 158 156 153 145 133 118 97 61 43 57 57 54 48 38 35 37 40 40 42 47 49
109 141 180 233 173 162 193 198 196 201 202 200 221 221 229 208 189 183 177 170 167 171 173 171 167 163 155 144 132 115 85 69 72 70 64 55 49 47 48 50 50 50 53 56
92 122 108 329 220 187 232 221 211 215 216 221 235 246 241 208 182 178 178 176 182 188 184 175 168 165 163 157 147 131 109 91 83 79 71 64 61 58 55 55 56 58 59 57
117 122 125 256 334 25 262 225 212 211 210 203 223 229 217 179 186 188 187 189 193 191 181 175 171 168 165 162 153 142 125 106 91 83 76 74 71 68 63 66 63 59 59 60
133 122 130 152 105 241 244 229 203 216 227 209 214 207 199 201 195 190 186 190 195 184 175 171 164 161 159 157 146 134 123 116 108 96 85 82 84 81 77 74 70 66 65 66
145 141 146 164 231 274 285 245 182 195 247 219 215 208 203 186 135 227 213 192 188 177 165 162 160 156 156 157 149 135 130 129 121 110 99 93 96 96 93 87 81 76 79 74
132 134 151 191 232 253 268 285 169 140 266 241 208 199 178 153 178 225 196 167 154 147 148 152 150 148 157 161 149 143 147 145 140 131 121 113 112 114 110 105 99 92 94 91
160 177 192 206 245 268 262 233 116 172 256 295 204 187 172 179 192 181 151 148 149 147 150 152 154 162 169 161 153 156 160 163 154 141 134 131 131 133 131 122 118 119 113 105
176 188 196 187 219 255 247 149 186 225 283 346 136 157 157 156 137 139 151 155 156 156 156 160 164 171 171 165 162 166 176 169 154 149 151 154 157 158 150 143 140 137 135 128
195 193 191 200 220 245 219 209 231 203 195 35 104 126 132 134 151 161 169 171 172 171 171 170 170 173 178 179 176 179 182 168 161 162 169 173 175 174 167 167 171 171 172 177
262 200 198 247 262 261 251 241 238 201 187 162 132 132 137 151 169 179 182 185 185 183 181 177 175 183 191 192 190 187 174 171 169 176 179 178 173 171 171 177 175 175 182 190
259 219 225 253 274 297 277 239 226 211 163 139 124 131 149 160 179 191 196 198 197 194 189 186 191 197 198 193 196 189 177 173 177 181 182 181 178 170 169 172 184 183 201 197
226 210 213 239 242 231 255 251 221 197 194 176 160 150 133 164 199 202 210 207 201 198 192 195 200 203 200 196 199 192 183 179 179 183 186 184 177 175 171 167 173 215 208 211
Height
1486 1491 1492 1493 1496 1498 1502 1507 1511 1511 1508 1512 1515 1516 1513 1512 1513 1513 1515 1516 1519 1521 1523 1524 1525 1527 1528 1530 1531 1533 1534 1535 1536 1537 1538 1538 1539 1540 1541 1542 1543 1543 1544 1544
1488 1490 1490 1494 1497 1498 1501 1508 1511 1510 1508 1511 1515 1515 1512 1511 1511 1511 1512 1513 1515 1517 1519 1521 1522 1524 1525 1527 1528 1529 1530 1531 1532 1532 1533 1534 1535 1535 1536 1537 1538 1538 1538 1539
1485 1488 1489 1493 1497 1501 1503 1507 1510 1511 1511 1511 1516 1518 1513 1509 1508 1509 1509 1510 1512 1514 1516 1518 1520 1521 1523 1524 1525 1526 1526 1527 1527 1528 1529 1529 1529 1530 1531 1531 1532 1532 1533 1533
1486 1486 1489 1493 1496 1499 1505 1502 1506 1510 1516 1521 1518 1526 1513 1507 1507 1505 1506 1507 1509 1511 1513 1515 1517 1519 1520 1521 1521 1522 1522 1523 1523 1523 1523 1524 1524 1524 1525 1525 1526 1526 1526 1526
1488 1487 1488 1492 1494 1497 1501 1499 1504 1509 1515 1521 1520 1525 1515 1506 1505 1501 1501 1503 1506 1508 1511 1513 1515 1516 1517 1518 1518 1519 1519 1519 1519 1519 1519 1519 1519 1519 1519 1519 1519 1520 1520 1520
1488 1488 1489 1491 1492 1495 1498 1503 1509 1514 1518 1525 1521 1525 1516 1506 1498 1496 1497 1500 1503 1506 1509 1511 1513 1514 1515 1516 1516 1516 1516 1516 1516 1516 1515 1515 1514 1514 1514 1514 1513 1513 1514 1514
1489 1490 1490 1491 1494 1496 1499 1508 1520 1523 1526 1526 1517 1518 1507 1493 1490 1489 1492 1496 1500 1504 1507 1509 1511 1512 1513 1514 1514 1514 1513 1513 1513 1512 1512 1511 1510 1510 1509 1509 1508 1508 1508 1507
1488 1491 1492 1492 1492 1495 1499 1503 1517 1523 1527 1525 1515 1514 1499 1489 1485 1485 1488 1493 1498 1502 1505 1507 1509 1511 1511 1512 1511 1511 1511 1510 1509 1509 1508 1507 1506 1505 1505 1504 1504 1503 1503 1502
1486 1490 1493 1493 1493 1494 1499 1504 1505 1516 1520 1522 1516 1506 1495 1487 1485 1486 1489 1493 1496 1500 1503 1506 1508 1509 1509 1509 1509 1508 1507 1506 1506 1505 1504 1503 1502 1501 1501 1500 1499 1499 1498 1497
1484 1490 1492 1493 1493 1495 1496 1499 1509 1516 1520 1518 1509 1504 1498 1489 1488 1487 1489 1491 1495 1499 1502 1504 1505 1506 1506 1506 1505 1505 1504 1502 1501 1500 1500 1499 1498 1497 1497 1496 1496 1495 1494 1493
1483 1488 1493 1495 1494 1495 1498 1500 1502 1509 1514 1514 1511 1501 1483 1482 1481 1483 1486 1489 1493 1497 1500 1502 1503 1503 1503 1503 1502 1501 1500 1499 1497 1496 1496 1495 1495 1494 1493 1493 1492 1491 1491 1490
1482 1487 1492 1495 1495 1494 1494 1495 1500 1507 1510 1512 1513 1500 1477 1476 1477 1481 1485 1489 1492 1496 1498 1500 1500 1500 1500 1499 1499 1497 1496 1495 1494 1493 1492 1492 1491 1491 1490 1490 1489 1488 1488 1487
1480 1488 1493 1496 1499 1497 1495 1494 1494 1497 1504 1512 1514 1497 1477 1475 1477 1481 1484 1488 1491 1494 1496 1497 1498 1497 1497 1496 1495 1494 1492 1491 1490 1490 1489 1489 1488 1488 1488 1487 1487 1486 1486 1485
1477 1485 1489 1488 1487 1489 1492 1491 1491 1496 1502 1504 1500 1490 1480 1479 1479 1481 1483 1486 1489 1492 1493 1494 1494 1494 1494 1493 1492 1490 1489 1488 1488 1487 1487 1486 1486 1486 1486 1485 1485 1485 1484 1483
1476 1484 1485 1483 1481 1485 1486 1485 1486 1489 1491 1494 1487 1484 1478 1477 1477 1479 1481 1484 1487 1489 1490 1491 1491 1491 1491 1490 1489 1487 1486 1486 1485 1485 1485 1485 1484 1484 1484 1484 1484 1484 1483 1483
1477 1484 1486 1486 1482 1482 1483 1481 1482 1482 1482 1483 1482 1479 1473 1473 1476 1478 1480 1482 1484 1485 1487 1488 1488 1488 1488 1487 1486 1485 1484 1484 1483 1483 1483 1483 1483 1483 1483 1483 1483 1483 1483 1482
1479 1484 1490 1491 1484 1483 1485 1475 1474 1475 1473 1474 1475 1472 1470 1471 1472 1474 1476 1478 1480 1482 1483 1484 1485 1485 1485 1484 1484 1483 1482 1482 1482 1482 1482 1482 1482 1483 1483 1483 1483 1483 1483 1482
1479 1485 1492 1493 1488 1492 1471 1464 1464 1466 1465 1466 1465 1465 1466 1467 1468 1471 1473 1475 1477 1478 1480 1481 1482 1482 1483 1482 1482 1482 1482 1482 1482 1481 1481 1482 1482 1483 1483 1483 1483 1483 1483 1483
1474 1481 1488 1491 1490 1481 1467 1460 1461 1464 1463 1458 1459 1460 1463 1465 1468 1469 1470 1472 1474 1475 1477 1479 1480 1480 1481 1481 1481 1481 1481 1481 1481 1481 1482 1482 1483 1483 1484 1484 1484 1484 1484 1483
1474 1476 1484 1484 1484 1479 1464 1457 1456 1460 1461 1451 1452 1455 1459 1462 1468 1467 1467 1469 1471 1473 1474 1476 1477 1478 1479 1480 1480 1480 1481 1481 1481 1482 1483 1483 1483 1484 1484 1485 1485 1485 1485 1484
1476 1478 1481 1482 1480 1472 1460 1457 1458 1466 1459 1450 1448 1450 1454 1457 1460 1462 1464 1466 1468 1470 1472 1474 1475 1476 1478 1479 1479 1480 1481 1481 1482 1483 1483 1484 1484 1485 1485 1485 1486 1485 1485 1485
1474 1477 1478 1478 1478 1473 1456 1457 1459 1457 1452 1449 1448 1449 1452 1455 1458 1460 1462 1464 1466 1468 1470 1471 1473 1475 1476 1478 1479 1479 1480 1481 1482 1483 1483 1484 1485 1485 1485 1486 1486 1486 1485 1485
1469 1468 1469 1469 1466 1457 1454 1454 1453 1452 1452 1451 1450 1451 1453 1455 1457 1459 1461 1463 1464 1466 1468 1469 1471 1473 1475 1476 1477 1479 1480 1481 1482 1482 1483 1484 1484 1485 1485 1485 1485 1485 1484 1484
1464 1461 1463 1462 1457 1454 1452 1452 1452 1452 1452 1452 1452 1453 1454 1455 1457 1459 1460 1461 1462 1464 1465 1467 1469 1470 1472 1474 1475 1477 1479 1479 1480 1481 1482 1483 1483 1484 1484 1484 1484 1484 1483 1482
1462 1461 1461 1459 1455 1452 1450 1450 1451 1451 1451 1452 1452 1453 1454 1455 1456 1457 1458 1459 1460 1461 1462 1464 1465 1467 1469 1471 1473 1475 1476 1477 1478 1479 1480 1481 1482 1482 1482 1482 1482 1482 1482 1481
1459 1459 1459 1456 1452 1452 1449 1448 1449 1449 1450 1450 1451 1452 1453 1453 1454 1455 1455 1456 1457 1458 1459 1460 1461 1463 1465 1467 1469 1471 1473 1474 1475 1476 1477 1478 1479 1480 1480 1480 1480 1480 1479 1478